Location: Crane Creek
(37.9716°N, 119.9816°W)
Time: 14:59:56
(UTC+00:00)

Cosmos-2242 - Pass Details

Date: 13 June 2024
Orbit: 578 x 604 km, 82.5° (Epoch: 24 July)

Event Time Altitude Azimuth Distance (km) Brightness Sun altitude
Rises 11:59:15 0° 354° (N) 2,866 6.9 -7.0°
Reaches altitude 10° 12:01:29 10° 356° (N) 1,956 6.1 -6.6°
Maximum altitude 12:05:49 75° 82° (E) 625 3.3 -5.9°
Drops below altitude 10° 12:10:05 10° 169° (SSE) 1,927 5.4 -5.3°
Sets 12:12:16 0° 170° (S) 2,820 6.2 -4.9°
